Weather History for KRHP - May, 2013

Change the Weather History Date:

Saturday, May 25, 2013

  Actual Average (KTYS) Record (KTYS)
Temperature  
Mean Temperature 57 °F 70 °F  
Max Temperature 77 °F 80 °F 93 °F (2011)
Min Temperature 37 °F 59 °F 43 °F (2013)
Degree Days  
Heating Degree Days 8 1  
Month to date heating degree days 54  
Since 1 July heating degree days 3629  
Cooling Degree Days 0 6  
Month to date cooling degree days 87  
Year to date cooling degree days 124  
Growing Degree Days 7 (Base 50)    
Moisture  
Dew Point 40 °F    
Average Humidity 62    
Maximum Humidity 98    
Minimum Humidity 22    
Precipitation  
Precipitation 0.00 in 0.13 in 1.17 in (2009)
Month to date precipitation 3.68  
Year to date precipitation 20.61  
Snow  
Snow 0.00 in 0.00 in - ()
Month to date snowfall 0.0  
Since 1 July snowfall 6.5  
Snow Depth -    
Sea Level Pressure  
Sea Level Pressure 30.28 in    
Wind  
Wind Speed 2 mph (WNW)    
Max Wind Speed 12 mph    
Max Gust Speed 20 mph    
Visibility 10 miles    
Events      
T = Trace of Precipitation, MM = Missing Value Source: NWS Daily Summary

Daily Weather History Graph

Daily Weather History Graph

Search for Another Location

Airport or City:

Trip Planner

Search our weather history database for the weather conditions in past years. The results will help you decide how hot, cold, wet, or windy it might be!

Date:

Astronomy

May. 25, 2013 Rise Set
Actual Time 6:24 AM EDT 8:40 PM EDT
Civil Twilight 5:56 AM EDT 9:09 PM EDT
Nautical Twilight 5:20 AM EDT 9:44 PM EDT
Astronomical Twilight 4:42 AM EDT 10:23 PM EDT
Moon 9:27 PM EDT (5/25) 6:50 AM EDT (5/25)
Length of Visible Light 15h 13m
Length of Day
14h 15m
Full, 100% of the Moon is Illuminated
May 25
Full
May 31
Last Quarter
Jun 8
New
Jun 16
First Quarter
Jun 23
Full

Hourly Weather History & Observations

Time (EDT) Temp. Windchill Dew Point Humidity Pressure Visibility Wind Dir Wind Speed Gust Speed Precip Events Conditions
12:15 AM 45.5 °F - 41.9 °F 87% 30.27 in 10.0 mi Calm Calm - N/A   Unknown
12:35 AM 45.5 °F 44.2 °F 41.2 °F 85% 30.27 in 10.0 mi North 3.5 mph - N/A   Unknown
12:55 AM 44.2 °F - 41.5 °F 90% 30.28 in 10.0 mi Calm Calm - N/A   Unknown
1:15 AM 44.1 °F - 41.9 °F 92% 30.28 in 10.0 mi Calm Calm - N/A   Unknown
1:35 AM 43.2 °F - 41.5 °F 94% 30.27 in 10.0 mi Calm Calm - N/A   Unknown
1:55 AM 43.0 °F - 41.4 °F 94% 30.28 in 10.0 mi Calm Calm - N/A   Unknown
2:15 AM 41.9 °F - 40.5 °F 95% 30.28 in 10.0 mi Calm Calm - N/A   Unknown
2:35 AM 40.6 °F - 39.7 °F 97% 30.29 in 10.0 mi Calm Calm - N/A   Unknown
2:55 AM 41.0 °F - 40.3 °F 97% 30.30 in 10.0 mi Calm Calm - N/A   Unknown
3:15 AM 40.8 °F 38.8 °F 39.4 °F 95% 30.29 in 10.0 mi NE 3.5 mph - N/A   Unknown
3:35 AM 41.0 °F - 39.9 °F 96% 30.29 in 10.0 mi Calm Calm - N/A   Unknown
3:55 AM 41.2 °F - 40.5 °F 97% 30.30 in 10.0 mi Calm Calm - N/A   Unknown
4:15 AM 39.9 °F - 39.0 °F 97% 30.30 in 10.0 mi Calm Calm - N/A   Unknown
4:35 AM 39.9 °F - 38.7 °F 95% 30.29 in 10.0 mi Calm Calm - N/A   Unknown
4:55 AM 40.8 °F - 39.6 °F 95% 30.30 in 10.0 mi Calm Calm - N/A   Unknown
5:15 AM 39.4 °F - 38.5 °F 97% 30.30 in 10.0 mi Calm Calm - N/A   Unknown
5:35 AM 39.4 °F - 38.8 °F 98% 30.31 in 10.0 mi Calm Calm - N/A   Unknown
5:55 AM 38.7 °F 36.3 °F 37.8 °F 97% 30.31 in 10.0 mi NE 3.5 mph - N/A   Unknown
6:15 AM 38.8 °F - 38.1 °F 97% 30.32 in 10.0 mi Calm Calm - N/A   Unknown
6:35 AM 37.9 °F - 37.4 °F 98% 30.32 in 10.0 mi Calm Calm - N/A   Unknown
6:55 AM 39.9 °F - 38.5 °F 95% 30.33 in 10.0 mi Calm Calm - N/A   Unknown
7:15 AM 41.0 °F - 39.4 °F 94% 30.34 in 10.0 mi Calm Calm - N/A   Unknown
7:35 AM 42.3 °F - 40.3 °F 93% 30.34 in 10.0 mi Calm Calm - N/A   Unknown
7:55 AM 43.7 °F - 41.2 °F 91% 30.34 in 10.0 mi Calm Calm - N/A   Unknown
8:15 AM 45.0 °F 43.5 °F 42.4 °F 91% 30.34 in 10.0 mi West 3.5 mph - N/A   Unknown
8:35 AM 47.1 °F - 42.4 °F 84% 30.34 in 10.0 mi Calm Calm - N/A   Unknown
8:55 AM 49.3 °F - 43.3 °F 80% 30.34 in 10.0 mi Calm Calm - N/A   Unknown
9:15 AM 51.3 °F - 43.5 °F 75% 30.34 in 10.0 mi WSW 3.5 mph - N/A   Unknown
9:35 AM 53.6 °F - 42.1 °F 65% 30.34 in 10.0 mi Calm Calm - N/A   Unknown
9:55 AM 55.9 °F - 42.1 °F 60% 30.34 in 10.0 mi Calm Calm - N/A   Unknown
10:15 AM 57.6 °F - 40.6 °F 53% 30.34 in 10.0 mi Calm Calm - N/A   Unknown
10:35 AM 60.1 °F - 42.6 °F 53% 30.33 in 10.0 mi Calm Calm - N/A   Unknown
10:55 AM 62.1 °F - 42.6 °F 49% 30.33 in 10.0 mi West 6.9 mph - N/A   Unknown
11:15 AM 63.5 °F - 42.8 °F 47% 30.33 in 10.0 mi West 6.9 mph - N/A   Unknown
11:35 AM 65.8 °F - 43.0 °F 43% 30.32 in 10.0 mi West 5.8 mph - N/A   Unknown
11:55 AM 66.9 °F - 41.4 °F 39% 30.32 in 10.0 mi Calm Calm - N/A   Unknown
12:15 PM 67.3 °F - 39.6 °F 36% 30.31 in 10.0 mi West 3.5 mph - N/A   Unknown
12:35 PM 69.8 °F - 40.1 °F 34% 30.30 in 10.0 mi WNW 4.6 mph - N/A   Unknown
12:55 PM 71.4 °F - 39.7 °F 32% 30.29 in 10.0 mi West 5.8 mph - N/A   Unknown
1:15 PM 72.9 °F - 39.4 °F 30% 30.28 in 10.0 mi Calm Calm - N/A   Unknown
1:35 PM 73.9 °F - 41.4 °F 31% 30.27 in 10.0 mi West 9.2 mph - N/A   Unknown
1:55 PM 73.9 °F - 37.4 °F 27% 30.27 in 10.0 mi West 9.2 mph - N/A   Unknown
2:15 PM 73.8 °F - 36.7 °F 26% 30.26 in 10.0 mi West 3.5 mph - N/A   Unknown
2:35 PM 74.8 °F - 39.2 °F 28% 30.25 in 10.0 mi SSW 4.6 mph - N/A   Unknown
2:55 PM 75.0 °F - 40.3 °F 29% 30.25 in 10.0 mi West 8.1 mph - N/A   Unknown
3:15 PM 75.4 °F - 41.2 °F 29% 30.25 in 10.0 mi South 3.5 mph - N/A   Unknown
3:35 PM 75.7 °F - 41.2 °F 29% 30.24 in 10.0 mi WSW 4.6 mph - N/A   Unknown
3:55 PM 77.2 °F - 44.4 °F 31% 30.24 in 10.0 mi SW 5.8 mph - N/A   Unknown
4:15 PM 76.5 °F - 44.8 °F 32% 30.24 in 10.0 mi WSW 6.9 mph - N/A   Unknown
4:35 PM 76.8 °F - 46.4 °F 34% 30.24 in 10.0 mi SW 6.9 mph - N/A   Unknown
4:55 PM 77.0 °F - 45.3 °F 32% 30.23 in 10.0 mi WSW 3.5 mph - N/A   Unknown
5:15 PM 76.3 °F - 38.8 °F 26% 30.23 in 10.0 mi North 11.5 mph 16.1 mph N/A   Unknown
5:35 PM 75.9 °F - 39.2 °F 27% 30.22 in 10.0 mi ENE 4.6 mph 16.1 mph N/A   Unknown
5:55 PM 74.5 °F - 36.9 °F 26% 30.22 in 10.0 mi NE 8.1 mph 19.6 mph N/A   Unknown
6:15 PM 73.6 °F - 36.1 °F 26% 30.22 in 10.0 mi NE 11.5 mph 17.3 mph N/A   Unknown
6:35 PM 72.7 °F - 35.8 °F 26% 30.23 in 10.0 mi North 10.4 mph - N/A   Unknown
6:55 PM 71.8 °F - 32.0 °F 23% 30.23 in 10.0 mi NE 11.5 mph 17.3 mph N/A   Unknown
7:15 PM 70.7 °F - 30.2 °F 22% 30.24 in 10.0 mi NNE 9.2 mph - N/A   Unknown
7:35 PM 69.4 °F - 31.6 °F 25% 30.25 in 10.0 mi NNE 6.9 mph - N/A   Unknown
7:55 PM 68.4 °F - 32.0 °F 26% 30.25 in 10.0 mi NNE 5.8 mph - N/A   Unknown
8:15 PM 60.6 °F - 40.1 °F 47% 30.25 in 10.0 mi Calm Calm - N/A   Unknown
8:35 PM 57.9 °F - 41.9 °F 55% 30.24 in 10.0 mi Calm Calm - N/A   Unknown
8:55 PM 57.6 °F - 40.6 °F 53% 30.24 in 10.0 mi Calm Calm - N/A   Unknown
9:15 PM 56.8 °F - 41.0 °F 55% 30.24 in 10.0 mi East 3.5 mph - N/A   Unknown
9:35 PM 54.5 °F - 42.1 °F 63% 30.25 in 10.0 mi Calm Calm - N/A   Unknown
9:55 PM 53.2 °F - 41.7 °F 65% 30.24 in 10.0 mi Calm Calm - N/A   Unknown
10:15 PM 52.2 °F - 42.8 °F 70% 30.24 in 10.0 mi Calm Calm - N/A   Unknown
10:35 PM 50.9 °F - 44.4 °F 78% 30.23 in 10.0 mi Calm Calm - N/A   Unknown
10:55 PM 50.0 °F - 45.0 °F 83% 30.24 in 10.0 mi Calm Calm - N/A   Unknown
11:15 PM 51.1 °F - 42.8 °F 73% 30.25 in 10.0 mi North 3.5 mph - N/A   Unknown
11:35 PM 49.1 °F - 43.7 °F 82% 30.25 in 10.0 mi Calm Calm - N/A   Unknown
11:55 PM 49.1 °F - 43.9 °F 82% 30.25 in 10.0 mi Calm Calm - N/A   Unknown